TimeMST,TemperatureF,Dew PointF,Humidity,Sea Level PressureIn,VisibilityMPH,Wind Direction,Wind SpeedMPH,Gust SpeedMPH,PrecipitationIn,Events,Conditions,WindDirDegrees,DateUTC
12:54 AM,42.1,30.9,65,29.84,10.0,WSW,33.4,43.7,N/A,,Clear,250,2014-02-15 07:54:00
1:54 AM,43.0,30.0,60,29.82,10.0,WSW,32.2,40.3,N/A,,Mostly Cloudy,250,2014-02-15 08:54:00
2:54 AM,44.1,28.9,55,29.83,10.0,West,34.5,44.9,N/A,,Mostly Cloudy,270,2014-02-15 09:54:00
3:54 AM,43.0,30.0,60,29.82,10.0,West,27.6,35.7,N/A,,Mostly Cloudy,270,2014-02-15 10:54:00
4:54 AM,42.1,28.0,58,29.83,10.0,West,24.2,34.5,N/A,,Clear,260,2014-02-15 11:54:00
5:54 AM,41.0,28.0,60,29.89,10.0,WNW,19.6,24.2,N/A,,Mostly Cloudy,290,2014-02-15 12:54:00
6:54 AM,37.0,30.0,76,29.93,10.0,WNW,8.1,-,N/A,,Scattered Clouds,290,2014-02-15 13:54:00
7:54 AM,36.0,32.0,86,29.99,10.0,West,10.4,-,N/A,,Overcast,280,2014-02-15 14:54:00
8:54 AM,37.9,33.1,83,30.01,10.0,West,9.2,-,N/A,,Overcast,270,2014-02-15 15:54:00
9:54 AM,39.9,33.1,77,30.01,10.0,West,6.9,-,N/A,,Overcast,280,2014-02-15 16:54:00
10:54 AM,41.0,32.0,70,30.01,10.0,WSW,8.1,-,N/A,,Overcast,250,2014-02-15 17:54:00
11:54 AM,46.0,30.9,56,29.97,10.0,West,17.3,25.3,N/A,,Overcast,280,2014-02-15 18:54:00
12:54 PM,48.9,30.9,50,29.94,10.0,West,16.1,-,N/A,,Overcast,260,2014-02-15 19:54:00
1:54 PM,46.9,28.0,48,29.93,10.0,West,15.0,-,N/A,,Overcast,260,2014-02-15 20:54:00
2:54 PM,48.9,25.0,39,29.90,10.0,West,19.6,-,N/A,,Mostly Cloudy,270,2014-02-15 21:54:00
3:54 PM,48.0,26.1,42,29.91,10.0,West,19.6,-,N/A,,Partly Cloudy,260,2014-02-15 22:54:00
4:54 PM,46.0,26.1,46,29.93,10.0,West,18.4,-,N/A,,Clear,260,2014-02-15 23:54:00
5:54 PM,43.0,25.0,49,29.95,10.0,WSW,16.1,-,N/A,,Overcast,250,2014-02-16 00:54:00
6:54 PM,41.0,25.0,53,29.97,10.0,West,19.6,-,N/A,,Clear,260,2014-02-16 01:54:00
7:54 PM,41.0,25.0,53,29.98,10.0,WSW,16.1,-,N/A,,Mostly Cloudy,250,2014-02-16 02:54:00
8:54 PM,41.0,25.0,53,29.96,10.0,WSW,15.0,-,N/A,,Scattered Clouds,250,2014-02-16 03:54:00
9:54 PM,39.9,24.1,53,29.94,10.0,WSW,13.8,-,N/A,,Clear,250,2014-02-16 04:54:00
10:54 PM,39.0,24.1,55,29.92,10.0,South,8.1,-,N/A,,Scattered Clouds,190,2014-02-16 05:54:00
11:54 PM,39.9,23.0,51,29.87,10.0,SW,4.6,-,N/A,,Mostly Cloudy,220,2014-02-16 06:54:00